Welcome to the New NWS' Forecast!
Most changes are behind the scenes, but click here for differences you might notice.
Latest weather observations around

Palm Springs Regional Airport (KPSP)

Using English Units (Switch to International System of Units)
Date/ Time (PST) Wind (mph) Vis. (mi) Weather Sky Cond. Temp (°F) Rel. Humidity Wind Chill (°F) Heat Index (°F) Pressure Precip. (in)
Air Dwpt 6 hour Altimeter (inHg) Sea level (inHg) 1 hr 3 hr 6 hr
Max Min
Nov 19 11:53 5 10 Clear CLR 73 25     17%   71 30.1 30.09      
Nov 19 10:53 ESE 3 10 Clear CLR 70 27     20%     30.13 30.12      
Nov 19 09:53 S 3 10 Clear CLR 68 31     25%     30.15 30.14      
Nov 19 08:53 Calm 10 Clear CLR 63 38     40%     30.14 30.14      
Nov 19 07:53 Calm 10 Clear CLR 57 33     40%     30.13 30.13      
Nov 19 06:53 NNW 6 10 Clear CLR 55 26     32%     30.12 30.12      
Nov 19 05:53 NW 5 10 Clear CLR 55 26     32%     30.1 30.1      
Nov 19 04:53 NW 6 10 Clear CLR 56 24     29%     30.09 30.08      
Nov 19 03:53 NNW 6 10 Clear CLR 55 24     30%     30.09 30.08      
Nov 19 02:53 NNW 7 10 Clear CLR 54 27     35%     30.08 30.08      
Nov 19 01:53 NNW 8 10 Clear CLR 54 28     37%     30.09 30.09      
Nov 19 00:53 NW 6 10 Clear CLR 55 28     35%     30.1 30.09      
Nov 18 23:53 Calm 10 Clear CLR 56 28     34%     30.1 30.1      
Nov 18 22:53 NNW 6 10 Clear CLR 58 30     34%     30.1 30.1      
Nov 18 21:53 NNW 6 10 Clear CLR 60 26     27%     30.1 30.1      
Nov 18 20:53 NNW 7 10 Clear CLR 59 31     34%     30.1 30.1      
Nov 18 19:53 NNW 7 10 Clear CLR 61 28     28%     30.09 30.09      
Nov 18 18:53 NNW 5 10 Clear CLR 64 34     33%     30.07 30.08      
Nov 18 17:53 Calm 10 Clear CLR 67 37     33%     30.06 30.06      
Nov 18 16:53 Calm 10 Clear CLR 70 33     26%     30.05 30.04      
Nov 18 15:53 SE 5 10 Clear CLR 73 31     21%   71 30.04 30.04      
Nov 18 14:53 ESE 6 10 Clear CLR 75 31     20%   73 30.04 30.04      
Nov 18 13:53 3 10 Clear CLR 75 33     22%   73 30.05 30.05      
Nov 18 12:53 SE 6 10 Clear CLR 74 32     21%   72 30.06 30.05      
Nov 18 11:53 Calm 10 Clear CLR 72 31     22%   70 30.09 30.09      
Nov 18 10:53 Calm 10 Clear CLR 68 31     25%     30.12 30.11      
Nov 18 09:53 Calm 10 Clear CLR 64 33     31%     30.14 30.14      
Nov 18 08:53 Calm 10 Clear CLR 63 31     30%     30.14 30.14      
Nov 18 07:53 NNW 5 10 Clear CLR 57 32     39%     30.14 30.14      
Nov 18 06:53 Calm 10 Clear CLR 53 31     43%     30.11 30.11      
Nov 18 05:53 Calm 10 Clear CLR 50 37     61%     30.09 30.09      
Nov 18 04:53 NNW 3 10 Clear CLR 55 29     37%     30.06 30.06      
Nov 18 03:53 NW 6 10 Clear CLR 55 32     41%     30.05 30.04      
Nov 18 02:53 Calm 10 Clear CLR 55 33     43%     30.04 30.04      
Nov 18 01:53 NNW 6 10 Clear CLR 57 32     39%     30.04 30.04      
Nov 18 00:53 NNW 3 10 Clear CLR 57 32     39%     30.04 30.04      
Nov 17 23:53 WNW 5 10 Clear CLR 58 31     36%     30.04 30.03      
Nov 17 22:53 NNW 7 10 Clear CLR 58 31     36%     30.04 30.04      
Nov 17 21:53 NNW 6 10 Clear CLR 58 32     37%     30.05 30.04      
Nov 17 20:53 NNW 6 10 Clear CLR 59 32     36%     30.05 30.05      
Nov 17 19:53 NNW 3 10 Clear CLR 60 31     33%     30.04 30.04      
Nov 17 18:53 Calm 10 Clear CLR 64 33     31%     30.03 30.03      
Nov 17 17:53 Calm 10 Clear CLR 65 31     28%     30.02 30.01      
Nov 17 16:53 E 5 10 Clear CLR 68 31     25%     29.99 29.99      
Nov 17 15:53 ESE 6 10 Clear CLR 71 33     25%   69 29.99 29.99      
Nov 17 14:53 E 6 10 Clear CLR 72 32     23%   70 29.99 29.99      
Nov 17 13:53 ESE 7 10 Clear CLR 72 34     25%   70 29.99 29.99      
Nov 17 12:53 E 7 10 Clear CLR 72 35     26%   70 30.01 30      
Nov 17 11:53 5 10 Clear CLR 71 30     22%   69 30.02 30.02      
Nov 17 10:53 5   Clear CLR 68 29     23%     30.05 30.05      
Nov 17 09:53 E 5 10 Clear CLR 65 29     26%     30.06 30.06      
Nov 17 08:53 E 5 10 Clear CLR 62 27     26%     30.06 30.06      
Nov 17 07:53 Calm 10 Clear CLR 58 27     30%     30.05 30.05      
Nov 17 06:53 Calm 10 Clear CLR 54 27     35%     30.03 30.03      
Nov 17 05:53 Calm 10 Clear CLR 49 29     46%     30.01 30.01      
Nov 17 04:53 NNW 7 10 Clear CLR 53 22     29%     30 29.99      
Nov 17 03:53 NNW 6 10 Clear CLR 53 24     32%     30 29.99      
Nov 17 02:53 WNW 3 10 Clear CLR 55 23     29%     29.99 29.99      
Nov 17 01:53 NNW 5 10 Clear CLR 54 24     31%     30 29.99      
Nov 17 00:53 NNW 8 10 Clear CLR 55 22     27%     30 30      
Nov 16 23:53 NNW 7 10 Clear CLR 56 23     28%     30 30      
Nov 16 22:53 NW 6 10 Clear CLR 60 21     22%     30 30      
Nov 16 21:53 NNW 8 10 Clear CLR 59 22     24%     30 30      
Nov 16 20:53 NNW 6 10 Clear CLR 59 23     25%     30 30      
Nov 16 19:53 N 6 10 Clear CLR 62 23     22%     29.99 29.99      
Nov 16 18:53 NNW 5 10 Clear CLR 65 27     24%     29.98 29.98      
Nov 16 17:53 Calm 10 Clear CLR 67 34     29%     29.97 29.97      
Nov 16 16:53 E 3 10 Clear CLR 72 30     21%   70 29.96 29.96      
Nov 16 15:53 ESE 6 10 Clear CLR 76 24     14%   74 29.96 29.96      
Nov 16 14:53 SE 3 10 Clear CLR 77 22     13%   75 29.97 29.96      
Nov 16 13:53 ESE 5 10 Clear CLR 77 22     13%   75 29.97 29.97      
Nov 16 12:53 E 6 10 Clear CLR 77 24     14%   75 29.98 29.98      
Nov 16 11:53 5 10 Clear CLR 75 22     14%   73 30.01 30      
Nov 16 10:53 ESE 3 10 Clear CLR 72 22     15%   70 30.03 30.03      
Nov 16 09:53 Calm 10 Clear   71 22     16%   69 30.04 30.04      
Nov 16 08:53 Calm 10 Clear CLR 66 26     22%     30.05 30.04      
Nov 16 07:53 NNW 5 10 Clear CLR 60 22     23%     30.04 30.04      
Nov 16 06:53 Calm 10 Clear CLR 52 30     43%     30.03 30.03      
Nov 16 05:53 N 5 10 Clear CLR 52 22     31%     30.02 30.02      
Nov 16 04:53 Calm 10 Clear CLR 51 31     46%     30.02 30.02      
Nov 16 03:53 Calm 10 Clear   51 31     46%     30.02 30.01      
Nov 16 02:53 NNW 6 10 Clear CLR 57 21     24%     30.02 30.02      
Nov 16 01:53 N 8 10 Clear CLR 57 22     25%     30.03 30.02      
Nov 16 00:53 NNW 7 10 Clear CLR 57 23     27%     30.03 30.03      
Nov 15 23:53 N 6 10 Clear CLR 57 24     28%     30.04 30.04      
Nov 15 22:53 NNW 6 10 Clear CLR 59 25     27%     30.05 30.05      
Nov 15 21:53 NNW 9 10 Clear CLR 58 24     27%     30.06 30.06      
Nov 15 20:53 NNW 6 10 Clear CLR 62 28     27%     30.07 30.06      
Nov 15 19:53 Calm 10 Clear CLR 63 31     30%     30.06 30.06      
Nov 15 18:53 N 5 10 Clear CLR 68 30     24%     30.06 30.06      
Nov 15 17:53 Calm 10 Clear CLR 69 29     22%     30.04 30.04      
Nov 15 16:53 ESE 8 10 Clear CLR 72 23     16%   70 30.03 30.03      
Nov 15 15:53 E 9 10 Clear CLR 78 26     15%   76 30.03 30.02      
Nov 15 14:53 ESE 8 10 Clear CLR 80 23     12%   78 30.02 30.02      
Nov 15 13:53 ESE 6 10 Clear CLR 81 20     10%   79 30.03 30.03      
Nov 15 12:53 7 10 Clear CLR 79 20     11%   77 30.05 30.05      
Nov 15 11:53 E 8 10 Clear CLR 77 18     11%   75 30.09 30.08      
Nov 15 10:53 ESE 6 10 Clear CLR 75 27     17%   73 30.12 30.12      
Nov 15 09:53 ESE 3 10 Clear CLR 73 23     15%   71 30.15 30.14      
Nov 15 08:53 NNW 3 10 Clear CLR 70 22     16%     30.16 30.16      
Nov 15 07:53 SW 5 10 Clear CLR 59 28     31%     30.16 30.16      
Nov 15 06:53 NW 9 10 Clear CLR 54 15     21%     30.15 30.15      
Nov 15 05:53 NW 7 10 Clear CLR 54 15     21%     30.14 30.14      
Nov 15 04:53 NNW 8 10 Clear CLR 54 15     21%     30.13 30.13      
Nov 15 03:53 NNW 7 10 Clear CLR 55 15     20%     30.13 30.13      
Nov 15 02:53 NNW 6 10 Clear CLR 57 13     17%     30.15 30.14      
Nov 15 01:53 NNW 7 10 Clear CLR 54 15     21%     30.16 30.16      
Nov 15 00:53 NW 9 10 Clear CLR 54 13     19%     30.17 30.16      
Nov 14 23:53 NNW 7 10 Clear CLR 56 15     20%     30.18 30.18      
Nov 14 22:53 NNW 5 10 Clear CLR 59 14     17%     30.2 30.19      
Nov 14 21:53 Calm 10 Clear CLR 59 16     18%     30.21 30.21      
Nov 14 20:53 NNW 3 10 Clear CLR 60 12     15%     30.21 30.21      
Nov 14 19:53 NW 8 10 Clear CLR 61 17     18%     30.2 30.2      
Nov 14 18:53 SW 3 10 Clear CLR 64 16     15%     30.2 30.2      
Nov 14 17:53 Calm 10 Clear CLR 66 20     17%     30.21 30.21      
Nov 14 16:53 Calm 10 Clear CLR 72 16     12%   69 30.2 30.19      
Nov 14 15:53 Calm 10 Clear CLR 76 10     8%   74 30.2 30.19      
Nov 14 14:53 E 5 10 Clear CLR 77 9     7%   75 30.21 30.2      
Nov 14 13:53 SE 5 10 Clear CLR 76 9     8%   74 30.22 30.22      
Nov 14 12:53 ESE 7 10 Clear CLR 76 9     8%   74 30.25 30.24      
Nov 14 11:53 SSE 6 10 Clear CLR 74 10     8%   71 30.29 30.29      
Nov 14 09:53 3 10 Clear CLR 69 10     10%     30.37 30.37      
Nov 14 08:53 Calm 10 Clear CLR 63 18     17%     30.39 30.39      
Nov 14 07:53 Calm 10 Clear CLR 57 22     25%     30.38 30.38      
Nov 14 06:53 Calm 10 Clear CLR 54 18     24%     30.36 30.37      
Nov 14 05:53 NNW 3 10 Clear CLR 54 19     25%     30.36 30.36      
Nov 14 04:53 NNW 6 10 Clear CLR 55 13     19%     30.34 30.35      
Nov 14 03:53 WNW 3 10 Clear CLR 55 17     22%     30.33 30.33      
Nov 14 02:53 NW 6 10 Clear CLR 56 10     16%     30.34 30.34      
Nov 14 01:53 NW 5 10 Clear CLR 54 11     18%     30.35 30.35      
Nov 14 00:53 NW 3 10 Clear CLR 56 12     17%     30.36 30.36      
Nov 13 23:53 W 5 10 Clear CLR 59 13     16%     30.37 30.37      
Nov 13 22:53 W 5 10 Clear CLR 59 12     15%     30.39 30.39      
Nov 13 21:53 NNW 9 10 Clear CLR 57 15     19%     30.4 30.4      
Nov 13 20:53 WNW 3 10 Clear CLR 58 18     21%     30.4 30.4      
Nov 13 19:53 Calm 10 Clear CLR 61 19     20%     30.4 30.4      
Nov 13 18:53 W 5 10 Clear CLR 63 15     15%     30.39 30.4      
Nov 13 17:53 SE 5 10 Clear CLR 61 22     22%     30.38 30.39      
Nov 13 16:53 Calm 10 Clear CLR 67 12     12%     30.39 30.39      
Nov 13 15:53 SE 5 10 Clear CLR 69 9     9%     30.39 30.39      
Nov 13 14:53 SW 3 10 Clear CLR 71 8     9%   68 30.39 30.39      
Nov 13 13:53 Calm 10 Clear CLR 71 7     8%   68 30.41 30.41      
Nov 13 12:53 E 7 10 Clear CLR 71 9     9%   68 30.43 30.42      
Nov 13 11:53 E 8 10 Clear CLR 71 7     8%   68 30.46 30.46      
Nov 13 10:53 ESE 6 10 Clear CLR 69 8     9%     30.49 30.49      
Nov 13 09:53 6 10 Clear CLR 66 9     11%     30.52 30.52      
Nov 13 08:53 Calm 10 Clear CLR 64 12     13%     30.54 30.54      
Nov 13 07:53 W 3 10 Clear CLR 58 18     21%     30.53 30.53      
Nov 13 06:53 W 3 10 Clear CLR 53 13     20%     30.51 30.52      
Nov 13 05:53 NNW 6 10 Clear CLR 48 13     24% 45   30.49 30.49      
Nov 13 04:53 N 3 10 Clear CLR 50 13     22%     30.47 30.47      
Nov 13 03:53 W 5 10 Clear CLR 53 11     18%     30.46 30.46      
Nov 13 02:53 W 3 10 Clear CLR 54 13     19%     30.46 30.46      
Nov 13 01:53 NW 8 10 Clear CLR 54 9     16%     30.46 30.46      
Nov 13 00:53 NNW 5 10 Clear CLR 52 13     21%     30.46 30.45      
Nov 12 23:53 WSW 6 10 Clear CLR 56 10     16%     30.46 30.45      
Nov 12 22:53 WSW 6 10 Clear CLR 56 14     19%     30.46 30.46      
Nov 12 21:53 W 5 10 Clear CLR 59 10     14%     30.46 30.46      
Nov 12 20:53 WSW 5 10 Clear CLR 59 11     15%     30.44 30.44      
Nov 12 19:53 WNW 6 10 Clear CLR 64 6     10%     30.42 30.42      
Nov 12 18:53 NW 7 10 Clear CLR 66 4     8%     30.4 30.4      
Nov 12 17:53 WNW 5 10 Clear CLR 65 8     10%     30.38 30.38      
Nov 12 16:53 N 6 10 Clear CLR 68 6     9%     30.35 30.35      
Nov 12 15:53 NNE 7 10 Clear CLR 72 4     7%   69 30.33 30.33      
Nov 12 14:53 ENE 8 10 Clear CLR 73 5     7%   70 30.33 30.33      
Nov 12 13:53 3 10 Clear CLR 73 3     6%   70 30.33 30.33      
Nov 12 12:53 6 10 Clear CLR 73 4     7%   70 30.34 30.34      
Nov 12 11:53 7 10 Clear CLR 71 5     7%   68 30.36 30.36      
Nov 12 10:53 SSE 5 10 Clear CLR 71 3     7%   68 30.38 30.38      
Nov 12 09:53 ENE 9 10 Clear CLR 71 5     7%   68 30.39 30.39      
Nov 12 08:53 Calm 10 Clear CLR 68 8     9%     30.39 30.39      
Nov 12 07:53 WSW 5 10 Clear CLR 62 9     12%     30.38 30.37      
Nov 12 06:53 SSW 3 10 Clear CLR 56 8     14%     30.36 30.36      
Nov 12 05:53 SW 6 10 Clear CLR 53 9     17%     30.33 30.33      
Nov 12 04:53 SW 3 10 Clear CLR 55 6     14%     30.3 30.3      
Nov 12 03:53 NW 5 10 Clear CLR 53 6     15%     30.29 30.29      
Nov 12 02:53 NW 3 10 Clear CLR 55 4     12%     30.28 30.27      
Nov 12 01:53 Calm 10 Clear CLR 52 7     16%     30.28 30.28      
Nov 12 00:53 6 10 Clear CLR 53 9     17%     30.27 30.27      
Nov 11 23:53 N 6 10 Clear CLR 53 13     20%     30.27 30.27      
Nov 11 22:53 NW 6 10 Clear CLR 58 5     12%     30.26 30.26      
Nov 11 21:53 W 5 10 Clear CLR 57 11     16%     30.25 30.25      
Nov 11 20:53 WNW 7 10 Clear CLR 62 7     11%     30.24 30.24      
Nov 11 19:53 WSW 8 10 Clear CLR 62 11     13%     30.22 30.22      
Nov 11 18:53 Calm 10 Clear CLR 64 10     12%     30.2 30.2      
Nov 11 17:53 3 10 Clear CLR 69 2     7%     30.18 30.18      
Nov 11 16:53 Calm 10 Clear CLR 70 1     6%     30.17 30.16      
Nov 11 15:53 ENE 6 10 Clear CLR 73 0     5%   70 30.16 30.16      
Nov 11 14:53 NNE 8 10 Clear CLR 75 -2     5%   72 30.14 30.13      
Nov 11 13:53 NNE 15 10 Clear CLR 76 0     5%   73 30.11 30.11      
Nov 11 12:53 ENE 7 10 Clear CLR 78 3     5%   76 30.11 30.1      
Nov 11 11:53 NE 11 10 Clear CLR 76 3     6%   73 30.12 30.12      
Nov 11 10:53 3 10 Clear CLR 73 6     7%   70 30.14 30.13      
Nov 11 09:53 NNW 14 10 Clear CLR 74 5     7%   71 30.14 30.14      
Nov 11 08:53 NNW 11 10 Clear CLR 72 3     7%   69 30.14 30.13      
Nov 11 07:53 N 10 10 Clear CLR 71 4     7%   68 30.11 30.11      
Nov 11 06:53 NW 11 10 Clear CLR 68 3     7%     30.06 30.05      
Nov 11 05:53 7 10 Clear CLR 64 9     11%     30.01 30.01      
Nov 11 04:53 W 5 10 Clear CLR 60 14     16%     29.98 29.97      
Nov 11 03:53 NNE 5 10 Clear CLR 58 13     17%     29.96 29.95      
Nov 11 02:53 Calm 10 Clear CLR 60 14     16%     29.94 29.94      
Nov 11 01:53 NNW 3 10 Clear CLR 59 17     19%     29.95 29.94      
Nov 11 00:53 NNW 3 10 Clear CLR 58 21     24%     29.94 29.93      
Nov 10 23:53 NNW 5 10 Clear CLR 58 23     26%     29.94 29.93      
Nov 10 22:53 NNW 5 10 Clear CLR 59 20     22%     29.93 29.92      
Nov 10 21:53 NW 3 10 Clear CLR 59 23     25%     29.93 29.92      
Nov 10 20:53 NNW 5 10 Clear CLR 63 21     20%     29.92 29.92      
Nov 10 19:53 N 6 10 Clear CLR 63 24     23%     29.92 29.92      
Nov 10 18:53 Calm 10 Clear CLR 67 24     20%     29.91 29.91      
Nov 10 17:53 NNE 5 10 Clear CLR 69 23     17%     29.9 29.9      
Nov 10 16:53 SE 3 10 Clear CLR 73 15     11%   71 29.89 29.88      
Nov 10 15:53 ESE 5 10 Clear CLR 78 12     8%   76 29.88 29.88      
Nov 10 14:53 7 10 Clear CLR 79 11     7%   77 29.89 29.89      
Nov 10 13:53 SE 8 10 Clear CLR 79 12     8%   77 29.9 29.9      
Nov 10 12:53 E 5 10 Clear CLR 79 9     7%   77 29.93 29.92      
Nov 10 11:53 Calm 10 Clear CLR 78 5     6%   76 29.96 29.96      
Nov 10 10:53 NE 3 10 Clear CLR 77 3     6%   75 29.99 29.99      
Nov 10 09:53 Calm 10 Clear CLR 74 6     7%   71 30.01 30.01      
Nov 10 08:53 NNW 3 10 Clear CLR 68 7     9%     30.02 30.02      
Nov 10 07:53 NNW 3 10 Clear CLR 60 7     12%     30.02 30.02      
Nov 10 06:53 NW 7 10 Clear CLR 55 -1     10%     30.01 30.01      
Nov 10 05:53 NNW 9 10 Clear CLR 51 0     12%     30.01 30.01      
Nov 10 04:53 NNW 8 10 Clear CLR 53 4     13%     30 30      
Nov 10 03:53 NNW 6 10 Clear CLR 55 -2     9%     30.01 30      
Nov 10 02:53 NW 7 10 Clear CLR 57 -1     9%     30.01 30.01      
Nov 10 01:53 NNW 5 10 Clear CLR 53 7     15%     30.03 30.02      
Nov 10 00:53 NW 7 10 Clear CLR 55 2     11%     30.04 30.04      
Nov 09 23:53 NNW 8 10 Clear CLR 54 7     15%     30.05 30.05      
Nov 09 22:53 NNW 7 10 Clear CLR 56 8     14%     30.06 30.06      
May 15 02:53 Calm 10 Clear CLR 69 48     47%     29.84 29.83      
May 14 20:53 NW 21 10 Clear and Windy CLR 78 49     36%   77 29.82 29.81      
May 14 19:53 NW 21 10 Clear and Windy CLR 81 49     33%   80 29.79 29.78      
May 13 21:53 NW 14 10 Clear CLR 74 45     36%   73 29.85 29.84      
May 13 09:53 NW 16 10 Clear   75 44     33%   74 29.93 29.92      
May 12 18:53 NW 22 10 Clear and Windy CLR 75 43     32%   74 29.77 29.76      
May 12 17:53 NW 22 10 Clear and Windy CLR 78 44     30%   77 29.77 29.76      
May 12 16:53 NW 22 10 Clear and Windy CLR 79 44     29%   78 29.76 29.76      
May 12 08:53 WNW 14 10 Clear CLR 70 44     39%     29.85 29.84      
May 12 06:53 WNW 10 10 Clear CLR 65 44     47%     29.81 29.8      
May 12 00:53 SE 6 10 Clear CLR 66 45     47%     29.7 29.69      
May 11 21:53 NW 15 10 Clear CLR 73 41     31%   72 29.68 29.67      
May 11 13:53 NW 22 10 Clear and Windy CLR 83 47     28%   81 29.65 29.64      
Jun 12 04:53 S 8 10 Clear CLR 64 44     48%     29.86 29.85      
Jun 11 21:53   10 Clear CLR 73 43     34%   72 29.8 29.79      
Jun 11 20:53 NNW 15 10 Clear CLR 75 44     33%   74 29.76 29.75      
Jun 11 19:53 NNW 17 10 Clear CLR 79 41     26%   78 29.74 29.73      
Jun 11 18:53 S 8 10 Clear CLR 81 38     21%   80 29.72 29.71      
Jun 10 23:53 NW 18 10 Clear CLR 75 46     36%   74 29.66 29.65      
Jun 10 19:53 NW 17 10 Clear   85 48     28%   83 29.63 29.61      
Jun 08 23:53 WNW 7 10 Clear CLR 83 41     23%   81 29.78 29.76      
Jun 08 17:53 NW 21 10 Clear and Windy CLR 97 40     14%   92 29.74 29.72      
Jun 07 07:53 Calm 10 Clear CLR 78 58     50%   78 29.86 29.85      
Jun 06 12:53 ESE 8 10 Clear CLR 100 45     15%   96 29.82 29.8      
Jun 06 07:53 W 5 10 Clear CLR 83 55     38%   82 29.85 29.84